Weather Roundup
Issued by NWS

Home | Current Version | Previous Version | Graphics & Text | Print | Product List | Glossary Off
Versions: 1 2 3 4 5 6 7 8 9 10 11 12 13 14 15 16 17 18 19 20 21 22 23 24 25 26 27 28 29 30 31 32 33 34 35 36 37 38 39 40 41 42 43 44 45 46 47 48 49 50

086
NZUS93 KARX 072110
HRRWXR

CURRENT HOURLY OBSERVATIONS ACROSS
MUCH OF THE UPPER MISSISSIPPI VALLEY
NATIONAL WEATHER SERVICE LA CROSSE WI
300 PM CST WED DEC 07 2016


...SOUTHEAST MINNESOTA...


CITY           SKY/WX    TMP DP  RH WIND       PRES   REMARKS
ROCHESTER      CLOUDY    18  12  77 W17       30.05R WCI   3
ROCHESTER/MAYO CLOUDY    19  12  76 W20G28    30.05S WCI   2
WINONA         FLURRIES  23  14  68 W13G20    30.09R WCI  11
AUSTIN         FLURRIES  19  12  73 W17G28    30.08S WCI   4
ALBERT LEA     CLOUDY    25  16  68 W13G22    30.08S WCI  13
DODGE CENTER   LGT SNOW  18  12  79 W17       30.05S WCI   2
PRESTON        LGT SNOW  17  12  79 W16       30.07S WCI   2
OWATONNA       FLURRIES  19  10  68 W18G24    30.08R WCI   4
FARIBAULT      FLURRIES  19  10  68 W17G25    30.09R WCI   4
$$

...ELSEWHERE IN MINNESOTA...


CITY           SKY/WX    TMP DP  RH WIND       PRES   REMARKS
MINNEAPOLIS    FLURRIES  20   9  62 W15G28    30.05R WCI   6
INTNL FALLS    SNOW      25  20  81 NW14      29.75R VSB 1/2 WCI  13
DULUTH         LGT SNOW  18  12  77 W21G32    29.81R BLWGSNOWWCI   1
RED WING       CLOUDY    21   9  58 W17       30.05R WCI   7
REDWOOD FALLS  CLOUDY    20   7  57 W29G36    30.13R WCI   1
MANKATO        FLURRIES  19  10  68 W25G31    30.10R WCI   2
WORTHINGTON    SUNNY     18   9  68 W31G37    30.15R WCI  -2
FAIRMONT       PTSUNNY   22  11  62 W23G31    30.13R WCI   6
$$

...SOUTHWEST WISCONSIN...


CITY           SKY/WX    TMP DP  RH WIND       PRES   REMARKS
LA CROSSE      CLOUDY    23  12  62 W16       30.08R WCI  10
PRAIRIE DU CHI FLURRIES  21  12  67 W12G23    30.13R WCI   9
BOSCOBEL       CLOUDY    22  12  65 W14G20    30.11R WCI   9
LONE ROCK      CLOUDY    22  12  65 W17       30.08R WCI   8
PLATTEVILLE    CLOUDY    20  14  78 W14G21    30.10R WCI   7
FORT MC COY    CLOUDY    21  13  71 W8G21     30.04S WCI  11
CAMP DOUGLAS   PTSUNNY   21  12  68 W16       30.01R WCI   7
MAUSTON-NEW LI MOCLDY    22  13  70 W13G20    30.01R WCI   9
VIROQUA        CLOUDY    18  12  77 W14       30.03S WCI   4
WIS DELLS      PTSUNNY   21  12  68 W13G20    30.02R WCI   9
$$

...ELSEWHERE IN WISCONSIN...


CITY           SKY/WX    TMP DP  RH WIND       PRES   REMARKS
MILWAUKEE      PTSUNNY   27  15  61 W13G24    30.02R WCI  16
MADISON        PTSUNNY   22  12  65 VRB7G18   30.04R WCI  13
GREEN BAY      MOCLDY    28  17  63 SW21G26   29.92S WCI  15
EAU CLAIRE     CLOUDY    20  13  74 W16G25    29.99R WCI   6
BLACK RVR FLS  CLOUDY    22  11  63 W10G20    30.02R WCI  11
MEDFORD        LGT SNOW  17  12  79 W13G22    29.89R WCI   4
WAUSAU         CLOUDY    20  12  71 W18G29    29.90R WCI   5
WIS RAPIDS     CLOUDY    22  13  68 W15G21    29.97R WCI   9
MARSHFIELD     CLOUDY    20  11  68 W16G24    29.93R WCI   6
RICE LAKE      PTSUNNY   20  11  68 W14G23    29.96R WCI   7
$$

...NORTHEAST IOWA...


CITY           SKY/WX    TMP DP  RH WIND       PRES   REMARKS
WATERLOO       CLOUDY    23  13  65 W17       30.16R WCI   9
DUBUQUE        SUNNY     19  12  74 W16       30.11R WCI   4
DECORAH        CLOUDY    19  12  73 VRB7G20   30.08R WCI  10
MASON CITY     CLOUDY    22  11  62 W23G33    30.14R WCI   6
CHARLES CITY   CLOUDY    21  12  68 W20G25    30.12R WCI   6
OELWEIN        CLOUDY    21  16  79 W15       30.13R WCI   8
$$

...ELSEWHERE IN IOWA...


CITY           SKY/WX    TMP DP  RH WIND       PRES   REMARKS
DES MOINES     CLOUDY    25   9  50 W21G26    30.25R WCI  11
IOWA CITY      PTSUNNY   26  14  60 W17G28    30.21R WCI  13
FORT DODGE     MOSUNNY   23  10  58 W15G22    30.21R WCI  10
MARSHALLTOWN   MOSUNNY   24  14  65 W17G28    30.19R WCI  11
CEDAR RAPIDS   MOSUNNY   23  16  74 W15       30.17R WCI  10
$$

...NORTHERN ILLINOIS...


CITY           SKY/WX    TMP DP  RH WIND       PRES   REMARKS
CHICAGO-OHARE  PTSUNNY   26  18  71 SW15      30.09R WCI  14
CHICAGO-MIDWAY CLOUDY    28  18  66 SW16      30.10R WCI  16
MOLINE         MOSUNNY   28  16  60 W15       30.18R WCI  16
ROCKFORD       CLOUDY    25  16  68 W14G24    30.12R WCI  13
PEORIA         MOSUNNY   30  18  60 W13       30.19R WCI  20
$$

NOTE: "FAIR" INDICATES FEW OR NO CLOUDS BELOW 12,000 FEET WITH NO
SIGNIFICANT WEATHER AND/OR OBSTRUCTIONS TO VISIBILITY. WIND
SPEEDS ARE IN MILES-PER-HOUR.




USA.gov is the U.S. government's official web portal to all federal, state and local government web resources and services.